GW1539 Weather Reports


time (UTC)temp
C
wind
direction
speed
KPH
gust
KPH
rain 1hr
cm
rain 24hr
cm
rain mn
cm
humidity
%
barometer
mb
20260507114619 10 221 0.0 0.0 0.05 0.76 0.05 88 1013.6
20260507111619 11 244 0.0 0.0 0.03 0.71 0.03 86 1013.4
20260507104617 11 248 0.0 0.0 0.03 0.84 0.03 86 1013.4
20260507103115 11 234 0.0 0.0 0.03 0.84 0.03 85 1013.4
20260507100119 12 236 0.0 0.0 0.00 0.81 0.00 82 1013.5
20260507093124 12 234 0.0 0.0 0.00 0.84 0.00 78 1013.2
20260507091617 13 5 0.0 0.0 0.00 0.84 0.00 83 1013.1
20260507084622 11 274 0.0 0.0 0.00 0.84 0.00 89 1013.4
20260507081619 10 217 0.0 0.0 0.00 0.84 0.00 83 1013.2
20260507074621 9 211 0.0 0.0 0.00 0.91 0.00 95 1012.9
20260507073125 8 286 0.0 0.0 0.00 0.91 0.00 96 1012.9
20260507070123 7 234 0.0 0.0 0.00 0.91 0.00 97 1012.6
20260507063119 7 234 0.0 0.0 0.00 1.27 0.00 97 1012.5
20260507061612 6 234 0.0 0.0 0.00 1.27 0.00 97 1012.5
20260507054618 6 234 0.0 0.0 0.00 1.47 0.00 97 1012.4
20260507053111 5 234 0.0 0.0 0.00 1.47 0.00 97 1012.2
20260507050119 3 234 0.0 0.0 0.00 1.47 0.00 96 1011.7
20260507043127 3 234 0.0 0.0 0.00 1.47 0.00 96 1011.6
20260507041617 3 234 0.0 0.0 0.00 1.47 0.00 96 1011.6
20260507040114 3 234 0.0 0.0 0.00 1.47 0.00 96 1011.4
20260507034622 3 234 0.0 0.0 0.00 1.47 0.00 96 1011.2
20260507033110 3 234 0.0 0.0 0.00 1.47 0.00 96 1011.4
20260507030108 4 234 0.0 0.0 0.00 1.47 0.00 96 1011.3
20260507023117 4 234 0.0 0.0 0.00 1.47 0.00 96 1011.1
20260507020120 4 234 0.0 0.0 0.00 1.47 0.00 96 1011.2
20260507014614 5 234 0.0 0.0 0.00 1.47 0.00 96 1011.1
20260507013112 5 234 0.0 0.0 0.00 1.47 0.00 96 1011.2
20260507011612 5 234 0.0 0.0 0.00 1.47 0.00 96 1011.2
20260507004620 6 234 0.0 0.0 0.00 1.47 0.00 96 1011.0
20260507001618 7 234 0.0 0.0 0.00 1.47 0.00 96 1011.2
20260507000110 7 234 0.0 0.0 0.00 1.47 0.00 96 1011.3
20260506233119 7 234 0.0 0.0 0.00 1.47 0.00 96 1011.2
20260506231611 7 234 0.0 0.0 0.00 1.47 0.00 96 1011.3
20260506224620 8 234 0.0 0.0 0.00 1.47 0.00 96 1011.4
20260506223110 8 234 0.0 0.0 0.00 1.47 0.00 96 1011.5
20260506220143 8 234 0.0 0.0 0.00 1.47 0.00 95 1011.3
20260506214612 8 234 0.0 0.0 0.00 1.47 1.47 95 1011.3
20260506211612 9 234 0.0 3.2 0.00 1.47 1.47 95 1011.5
20260506204616 9 234 0.0 1.6 0.00 1.47 1.47 95 1011.3
20260506201622 10 234 1.6 3.2 0.00 1.47 1.47 95 1011.1
20260506194621 9 234 0.0 0.0 0.05 1.47 1.47 95 1010.9
20260506191623 10 234 0.0 3.2 0.05 1.47 1.47 95 1010.5
20260506190110 10 236 8.0 12.9 0.03 1.45 1.45 95 1010.5
20260506183115 10 248 0.0 0.0 0.00 1.45 1.42 94 1010.1
20260506180117 10 248 0.0 0.0 0.00 1.45 1.42 93 1010.0
20260506174615 10 248 0.0 1.6 0.00 1.45 1.42 93 1009.9
20260506171619 11 248 0.0 4.8 0.00 1.45 1.42 92 1009.7
20260506164621 11 248 0.0 3.2 0.00 1.47 1.42 92 1009.6
20260506163117 11 248 0.0 8.0 0.00 1.47 1.42 91 1009.3
20260506160122 11 271 0.0 4.8 0.00 1.47 1.42 92 1009.6
20260506153121 11 271 0.0 4.8 0.00 1.47 1.42 91 1009.7
20260506151619 11 292 0.0 4.8 0.03 1.47 1.42 94 1009.4
20260506144619 11 290 0.0 4.8 0.33 1.47 1.42 93 1009.6
20260506143117 10 232 0.0 3.2 0.33 1.47 1.42 94 1009.7
20260506141614 10 229 0.0 3.2 0.30 1.47 1.40 96 1009.7
20260506140113 9 240 3.2 8.0 0.25 1.37 1.27 95 1010.0
20260506133141 10 233 1.6 6.4 0.10 1.22 1.09 95 1009.8
20260506131617 10 231 0.0 3.2 0.15 1.22 1.09 95 1010.2
20260506124615 10 231 1.6 6.4 0.10 1.22 1.02 95 1010.3
20260506123111 10 279 0.0 8.0 0.13 1.19 0.99 95 1010.1
20260506120123 10 259 1.6 9.7 0.15 1.12 0.91 95 1009.8